SCP
-0 -0 -0 -0 -0 -0 -0 -0 -0 -0 0 0 0 0 -0 0 0 -0 0 0 0 0 0 0 0 0 0 0 0 0 0 0 0 0 0 0 0 0 0 0 0 0 0 0 0
-0 -0 -0 -0 -0 -0 -0 -0 -0 -0 -0 0 0 0 0 -0 -0 -0 0 0 0 0 0 0 0 0 0 0 0 0 0 0 0 0 0 0 0 0 0 0 0 0 0 0 0
0 -0 -0 -0 -0 -0 -0 -0 -0 -0 -0 0 0 0 0 0 -0 -0 0 0 0 0 0 0 0 0 0 0 0 0 0 0 0 0 0 0 -0 0 0 0 0 0 0 0 0
0 -0 -0 0 -0 -0 -0 -0 -0 -0 0 0 0 0 -0 -0 -0 0 0 0 0 0 0 0 0 0 0 0 0 0 0 0 0 0 0 -0 -0 0 0 0 0 0 0 0 0
-0 -0 -0 -0 -0 -0 -0 -0 0 0 0 0 0 0 -0 -0 -0 0 0 0 0 0 0 0 0 0 0 0 0 0 0 0 0 0 0 0 -0 -0 0 0 0 0 0 0 0
-0 -0 -0 -0 -0 -0 -0 -0 0 0 0 0 0 -0 -0 -0 0 0 0 0 0 0 0 0 0 0 0 0 0 0 0 0 0 0 0 0 0 -0 -0 -0 0 0 0 0 0
-0 -0 -0 -0 -0 -0 -0 -0 0 0 0 -0 -0 -0 -0 -0 0 0 0 0 0 0 0 0 0 0 0 0 0 0 0 0 0 0 0 0 0 0 -0 0 0 0 0 0 0
-0 -0 -0 -0 -0 -0 -0 -0 -0 -0 -0 -0 0 -0 -0 0 0 -0 0 -0 0 0 0 0 0 0 0 0 0 0 0 0 0 0 0 0 0 0 0 0 0 0 0 0 0
-0 -0 -0 -0 -0 -0 -0 -0 0 -0 -0 -0 -0 -0 -0 0 0 0 0 0 0 0 0 0 0 0 0 0 0 0 0 0 0 0 0 0 0 0 0 0 0 0 0 0 0
0 0 0 0 -0 -0 -0 0 -0 0 -0 0 -0 -0 -0 -0 0 0 0 0 -0 0 0 0 0 0 0 0 0 0 0 0 0 0 0 0 0 -0 0 0 0 0 0 0 0
0 0 0 0 0 -0 0 0 0 0 0 -0 -0 -0 -0 -0 0 0 0 -0 -0 0 -0 -0 0 0 0 0 0 0 0 0 0 0 0 0 0 0 0 0 0 0 0 0 0
0 0 0 0 0 0 0 0 0 0 0 -0 -0 -0 -0 0 0 0 0 0 -0 -0 -0 0 0 0 0 0 0 0 0 -0 -0 0 0 0 0 0 0 0 0 0 0 0 0
0 0 0 0 0 0 -0 -0 -0 0 0 0 -0 0 -0 0 -0 0 0 0 -0 -0 -0 -0 0 0 0 0 0 0 0 0 0 0 -0 -0 0 0 0 0 0 0 0 0 0
0 0 0 0 0 0 0 -0 0 0 0 0 -0 0 0 0 0 0 0 0 0 0 -0 0 0 0 0 0 0 0 0 0 0 0 -0 -0 -0 0 0 0 0 0 0 0 0
0 0 0 0 0 0 0 0 0 0 0 0 0 0 0 0 0 0 0 0 0 0 0 0 0 0 0 0 0 0 0 0 0 0 0 0 -0 -0 0 0 0 0 0 0 0
0 0 0 0 0 0 0 0 0 0 0 0 0 0 0 0 0 0 0 0 0 0 0 0 0 0 0 0 0 0 0 0 0 0 0 0 -0 -0 0 0 0 0 0 0 0
0 0 0 0 0 0 0 0 0 0 0 0 0 0 0 0 0 0 0 0 0 0 0 0 0 0 0 0 0 0 0 0 0 0 0 0 0 -0 0 0 0 0 0 0 0
0 0 0 0 0 0 0 0 0 0 0 0 0 0 0 0 0 0 0 0 0 0 0 0 0 0 0 0 0 0 0 0 0 0 0 0 0 0 0 0 0 0 0 0 0
0 0 0 0 0 0 0 0 0 0 0 0 0 0 0 0 0 0 0 0 0 0 0 0 0 0 0 0 0 0 0 0 0 0 0 0 0 0 0 0 0 0 0 0 0
0 0 0 0 0 0 0 0 0 0 0 0 0 0 0 0 0 0 0 0 0 0 0 0 0 0 0 0 0 0 0 0 0 0 0 0 0 0 0 0 0 0 -0 0 0
0 0 0 0 0 0 0 0 0 0 0 0 0 0 0 0 0 0 0 0 0 0 0 0 0 0 0 0 0 0 0 0 0 0 0 0 0 0 0 0 0 0 -0 -0 0
0 0 0 0 0 0 0 0 0 0 0 0 0 0 0 0 0 0 0 0 0 0 0 0 0 0 0 0 0 0 0 0 0 0 0 0 0 0 0 0 -0 -0 -0 -0 -0
0 0 0 0 0 0 0 0 0 0 0 0 0 0 0 0 0 0 0 0 0 0 0 0 0 0 0 0 0 0 0 0 0 0 0 0 0 0 0 0 0 0 0 -0 -0
0 0 0 0 0 0 0 0 0 0 0 0 0 0 0 0 0 0 0 0 0 0 0 0 0 0 0 0 0 0 0 0 0 0 0 0 -0 -0 -0 0 0 0 0 0 0
0 0 0 0 0 0 0 0 0 0 0 0 0 0 0 0 0 0 0 0 0 0 0 0 0 0 0 0 0 0 0 0 0 0 0 0 0 0 0 0 0 0 0 0 0
0 0 0 0 0 0 0 0 0 0 0 0 0 0 0 0 0 0 0 0 0 0 0 0 0 0 0 0 0 0 0 0 0 0 0 0 0 0 0 0 0 0 0 0 0
0 0 0 0 0 0 0 0 0 0 0 0 0 0 0 0 0 0 0 0 0 0 0 0 0 0 0 0 0 0 0 0 0 0 0 0 0 0 0 0 0 0 0 0 0
Wind_Speed_500mb
35 35 36 38 39 40 38 38 40 41 40 37 30 21 18 14 20 27 56 48 49 48 45 35 23 18 13 13 23 14 4 12 14 14 22 10 8 40 28 11 12 15 15 17 48
34 35 36 40 40 36 35 35 36 36 33 27 22 19 13 12 20 63 50 46 46 50 50 50 45 32 12 10 11 15 11 17 12 21 22 35 10 34 21 24 5 18 20 19 54
31 34 37 34 34 34 32 33 37 36 35 34 25 19 14 5 17 53 53 49 47 47 40 29 25 19 9 19 13 14 15 10 22 47 56 49 13 36 27 12 25 32 36 38 60
28 30 31 32 31 31 30 32 37 39 43 44 33 26 41 11 12 46 47 46 43 39 37 29 31 16 14 9 28 20 23 23 28 45 40 14 11 20 18 29 9 24 40 53 65
22 27 32 30 29 31 31 32 39 36 33 43 56 33 39 60 32 43 46 42 41 39 41 40 41 22 7 18 30 2 30 53 61 56 41 47 20 19 33 54 35 22 34 56 65
23 28 29 28 30 27 26 28 35 28 30 29 43 59 62 54 40 40 42 37 42 40 39 34 21 25 15 14 6 24 38 41 41 50 35 23 37 20 17 37 25 32 36 49 61
24 26 26 29 29 27 23 22 33 25 23 34 31 19 73 39 40 46 45 37 35 37 39 30 22 22 28 20 21 36 13 17 13 30 13 16 35 35 38 52 40 30 39 48 55
24 25 25 25 26 22 18 25 9 33 20 7 11 32 24 36 43 37 36 40 23 28 29 28 26 17 13 31 23 12 7 9 11 28 21 13 49 14 23 51 42 42 43 50 59
20 22 22 23 24 20 4 23 36 5 23 29 12 10 16 42 60 54 40 38 33 25 34 31 18 13 34 12 11 15 14 23 20 21 5 11 30 36 39 53 42 38 49 52 60
14 17 18 18 18 18 13 8 5 37 6 12 34 8 32 36 46 57 32 35 40 42 18 33 15 9 14 17 9 20 19 19 27 21 25 24 27 14 47 29 36 26 13 7 26
11 14 16 17 16 19 19 3 4 2 47 26 18 13 24 27 38 56 42 42 38 45 12 16 18 15 12 8 11 12 14 18 22 28 38 31 28 22 33 50 31 40 41 34 21
9 12 14 17 16 23 22 13 17 9 13 21 19 24 16 23 19 55 52 20 26 12 23 14 10 12 12 14 15 16 13 14 19 37 34 33 42 28 29 31 44 46 48 50 43
9 10 12 16 11 19 32 23 12 8 7 11 15 18 22 17 14 36 47 13 15 17 12 7 6 19 13 16 17 17 12 16 23 34 24 25 19 14 18 34 41 43 45 48 50
8 9 9 14 5 19 25 17 6 5 10 15 14 13 21 14 8 22 32 16 18 12 8 2 9 10 17 10 7 18 10 25 33 26 10 16 14 29 39 26 13 28 37 48 58
9 9 7 7 6 12 15 13 3 3 8 4 9 13 16 12 19 14 25 11 5 8 9 9 10 19 12 8 5 15 16 21 35 28 11 10 9 13 18 21 24 29 48 37 45
10 8 6 4 4 10 12 9 4 12 7 10 9 14 11 12 15 19 18 14 6 5 5 12 15 5 7 8 8 17 12 29 7 1 4 13 4 9 10 5 26 48 34 29 42
12 6 6 6 5 9 11 4 10 11 7 11 3 8 4 8 10 14 9 12 6 13 11 13 9 8 2 9 11 11 10 8 11 8 10 10 15 12 34 27 28 16 35 47 52
16 7 8 8 6 9 11 9 10 4 11 5 2 3 3 9 4 11 8 8 6 8 4 5 16 3 3 2 9 10 8 6 10 9 24 25 14 13 20 26 9 16 25 44 64
15 12 13 12 8 5 6 8 14 14 9 6 5 10 11 7 4 10 3 5 5 6 6 6 11 9 8 6 2 6 3 11 9 23 10 10 15 18 34 11 9 26 39 46 61
15 13 19 17 11 5 7 10 6 10 10 2 7 5 4 9 8 9 4 7 4 7 5 5 13 7 10 9 12 9 6 5 5 9 11 12 24 21 19 17 14 25 32 48 57
9 9 10 14 17 8 7 14 11 15 14 12 12 5 7 3 5 5 9 10 9 7 4 7 8 12 8 5 6 8 6 3 5 5 8 18 19 12 22 10 20 27 33 46 56
13 6 9 21 6 4 6 11 9 12 12 7 11 11 14 9 5 6 12 13 16 18 10 12 7 9 18 20 15 12 8 7 5 8 8 17 35 11 37 24 33 46 67 68 69
11 10 13 27 6 5 4 5 6 7 10 8 11 11 10 14 2 12 9 12 25 15 10 7 5 10 19 12 10 3 8 1 6 7 27 14 26 6 23 48 69 71 78 71 60
15 2 10 20 7 11 10 8 6 16 7 10 7 10 8 10 13 7 8 9 19 27 19 11 10 16 16 19 4 29 27 26 13 14 26 39 66 68 57 45 57 53 63 71 80
27 15 13 8 14 15 15 12 8 11 13 18 5 12 14 9 9 13 11 9 16 23 16 12 11 13 33 42 39 48 53 39 34 44 25 66 38 57 56 50 60 71 63 66 74
23 16 16 7 9 20 15 15 20 8 19 11 11 16 13 13 18 16 12 9 10 4 10 3 10 6 32 31 33 46 48 41 42 43 39 54 64 54 81 72 58 59 50 50 60
61 33 15 17 15 9 10 15 24 27 28 16 33 12 17 36 47 44 37 32 24 10 7 4 3 7 12 19 25 17 19 12 9 13 13 17 36 37 35 36 46 50 54 49 50
Wind_Direction_500mb
70 67 62 57 48 46 42 33 29 24 21 25 24 21 13 28 43 31 33 6 353 349 342 338 311 294 257 245 215 193 197 217 216 214 255 267 342 306 288 200 163 171 197 215 185
67 61 56 49 43 36 37 32 28 23 17 26 19 8 9 17 58 38 25 13 2 356 351 355 353 342 332 297 247 205 196 222 210 220 257 273 260 287 310 288 171 176 191 194 179
59 57 54 46 38 32 40 33 32 30 41 50 40 39 8 343 67 14 16 10 4 358 357 345 334 353 348 321 300 292 251 222 238 246 253 270 260 275 265 280 243 206 190 182 180
59 61 55 45 37 31 33 42 42 47 51 50 47 34 42 110 61 3 7 2 3 2 354 7 15 23 10 1 326 323 328 326 285 266 273 274 254 303 279 263 283 251 222 189 189
63 57 51 42 32 32 28 41 47 56 61 56 53 63 62 68 36 16 7 2 7 12 18 18 26 9 12 326 325 285 330 324 317 311 307 294 262 254 251 264 275 274 214 200 199
65 55 48 37 33 31 34 48 47 64 73 66 56 56 60 66 38 20 16 15 11 18 22 19 14 348 292 287 265 311 306 304 308 303 297 275 284 268 270 260 255 236 226 211 208
63 52 42 32 25 33 31 51 57 61 92 68 57 46 52 45 27 22 23 23 25 21 23 25 22 2 332 302 324 294 295 308 272 285 285 301 269 252 264 251 240 237 230 220 215
55 46 35 25 20 34 45 45 82 65 91 97 18 48 66 35 27 29 28 37 40 30 36 24 25 7 352 318 317 310 332 349 330 338 308 244 259 300 257 261 242 228 233 232 224
39 36 28 18 11 14 69 60 40 143 68 49 34 51 36 27 30 23 21 23 19 20 43 45 42 55 22 18 8 12 331 325 324 310 301 29 316 328 293 289 282 257 244 242 237
29 25 20 12 6 3 348 241 22 41 43 34 42 71 21 11 23 19 40 33 34 30 39 36 38 49 21 37 346 317 322 309 307 315 319 298 282 305 296 325 323 325 328 309 264
10 12 9 7 2 4 10 176 80 99 58 69 53 66 7 24 28 24 27 40 42 33 17 8 50 21 332 358 296 283 298 295 308 312 321 295 276 272 283 297 302 301 297 293 277
349 356 359 359 8 10 21 92 85 123 81 53 34 27 17 9 356 18 21 38 35 41 11 20 46 349 341 12 352 324 303 309 304 329 325 308 287 269 269 261 270 280 284 277 272
321 334 345 351 3 10 32 65 90 89 76 27 13 357 10 349 10 8 10 6 35 17 31 99 276 348 16 347 351 327 296 329 317 321 303 354 296 304 255 236 252 259 269 276 275
302 310 334 349 7 16 29 34 67 64 76 313 354 12 352 358 358 6 7 16 23 18 3 256 305 351 334 324 11 321 337 332 318 332 296 26 292 309 307 306 274 261 258 266 279
292 297 319 2 25 27 14 13 52 47 50 289 327 349 2 41 329 360 359 356 345 322 62 270 307 324 324 272 338 257 312 304 296 286 332 293 266 268 307 286 290 340 341 347 317
283 280 283 327 358 6 3 11 111 43 266 330 329 359 14 12 343 317 354 0 331 29 336 258 287 219 235 293 277 277 327 314 327 44 24 276 319 288 276 340 329 337 2 20 25
277 262 256 287 309 345 351 66 36 113 335 291 302 13 28 321 329 22 354 0 35 18 350 324 296 289 336 323 314 25 25 330 342 352 235 271 318 248 286 300 334 325 1 14 18
276 261 237 257 295 333 334 54 81 224 230 322 250 36 84 359 326 331 3 1 22 70 26 57 333 313 54 176 269 299 156 178 274 302 292 301 258 245 246 325 323 320 351 4 8
269 256 248 236 241 291 301 57 201 197 171 182 54 55 318 335 322 360 37 229 232 154 145 22 270 314 313 292 345 301 359 224 258 265 274 232 273 297 275 197 292 341 357 4 1
262 246 241 227 208 192 76 239 192 183 134 107 155 131 236 277 13 33 351 233 224 189 178 247 299 252 290 329 277 203 301 356 337 309 292 281 282 250 286 271 337 336 1 350 347
209 263 225 213 192 176 170 223 226 194 169 154 185 151 214 284 178 264 234 282 212 175 146 158 152 287 13 196 242 337 317 11 122 214 271 304 275 227 254 247 313 313 334 331 327
199 272 213 177 170 77 158 199 186 170 179 176 153 170 167 170 238 261 238 218 193 165 183 211 192 279 252 278 258 212 264 177 146 283 295 305 274 247 259 295 338 320 316 316 318
201 242 213 188 162 234 284 305 238 162 205 179 179 185 184 160 204 201 227 268 217 191 192 198 272 323 336 356 357 149 193 164 314 288 259 254 267 237 317 310 295 301 300 301 305
184 200 210 202 221 144 152 232 212 214 211 208 179 134 147 190 188 235 241 273 232 213 218 181 202 185 229 246 196 282 260 261 239 260 282 245 271 282 281 290 294 291 291 293 294
200 232 197 184 234 189 173 161 162 194 210 204 253 218 169 177 191 207 219 261 253 245 225 171 244 228 248 265 271 271 277 275 250 251 248 271 268 275 284 292 293 292 288 287 290
195 179 190 186 182 157 192 209 185 190 156 234 223 198 181 179 196 187 181 179 223 296 186 151 267 327 290 270 265 277 272 267 260 261 250 259 273 269 275 280 285 287 284 276 282
210 209 203 160 161 124 221 199 199 170 215 217 209 147 188 233 242 257 267 262 240 187 207 218 144 357 269 331 310 291 251 214 242 212 209 243 257 291 295 283 292 303 292 281 284
Wind_Speed_850mb
35 35 36 38 39 40 38 38 40 41 40 37 30 21 18 14 20 27 56 48 49 48 45 35 23 18 13 13 23 14 4 12 14 14 22 10 8 40 28 11 12 15 15 17 48
34 35 36 40 40 36 35 35 36 36 33 27 22 19 13 12 20 63 50 46 46 50 50 50 45 32 12 10 11 15 11 17 12 21 22 35 10 34 21 24 5 18 20 19 54
31 34 37 34 34 34 32 33 37 36 35 34 25 19 14 5 17 53 53 49 47 47 40 29 25 19 9 19 13 14 15 10 22 47 56 49 13 36 27 12 25 32 36 38 60
28 30 31 32 31 31 30 32 37 39 43 44 33 26 41 11 12 46 47 46 43 39 37 29 31 16 14 9 28 20 23 23 28 45 40 14 11 20 18 29 9 24 40 53 65
22 27 32 30 29 31 31 32 39 36 33 43 56 33 39 60 32 43 46 42 41 39 41 40 41 22 7 18 30 2 30 53 61 56 41 47 20 19 33 54 35 22 34 56 65
23 28 29 28 30 27 26 28 35 28 30 29 43 59 62 54 40 40 42 37 42 40 39 34 21 25 15 14 6 24 38 41 41 50 35 23 37 20 17 37 25 32 36 49 61
24 26 26 29 29 27 23 22 33 25 23 34 31 19 73 39 40 46 45 37 35 37 39 30 22 22 28 20 21 36 13 17 13 30 13 16 35 35 38 52 40 30 39 48 55
24 25 25 25 26 22 18 25 9 33 20 7 11 32 24 36 43 37 36 40 23 28 29 28 26 17 13 31 23 12 7 9 11 28 21 13 49 14 23 51 42 42 43 50 59
20 22 22 23 24 20 4 23 36 5 23 29 12 10 16 42 60 54 40 38 33 25 34 31 18 13 34 12 11 15 14 23 20 21 5 11 30 36 39 53 42 38 49 52 60
14 17 18 18 18 18 13 8 5 37 6 12 34 8 32 36 46 57 32 35 40 42 18 33 15 9 14 17 9 20 19 19 27 21 25 24 27 14 47 29 36 26 13 7 26
11 14 16 17 16 19 19 3 4 2 47 26 18 13 24 27 38 56 42 42 38 45 12 16 18 15 12 8 11 12 14 18 22 28 38 31 28 22 33 50 31 40 41 34 21
9 12 14 17 16 23 22 13 17 9 13 21 19 24 16 23 19 55 52 20 26 12 23 14 10 12 12 14 15 16 13 14 19 37 34 33 42 28 29 31 44 46 48 50 43
9 10 12 16 11 19 32 23 12 8 7 11 15 18 22 17 14 36 47 13 15 17 12 7 6 19 13 16 17 17 12 16 23 34 24 25 19 14 18 34 41 43 45 48 50
8 9 9 14 5 19 25 17 6 5 10 15 14 13 21 14 8 22 32 16 18 12 8 2 9 10 17 10 7 18 10 25 33 26 10 16 14 29 39 26 13 28 37 48 58
9 9 7 7 6 12 15 13 3 3 8 4 9 13 16 12 19 14 25 11 5 8 9 9 10 19 12 8 5 15 16 21 35 28 11 10 9 13 18 21 24 29 48 37 45
10 8 6 4 4 10 12 9 4 12 7 10 9 14 11 12 15 19 18 14 6 5 5 12 15 5 7 8 8 17 12 29 7 1 4 13 4 9 10 5 26 48 34 29 42
12 6 6 6 5 9 11 4 10 11 7 11 3 8 4 8 10 14 9 12 6 13 11 13 9 8 2 9 11 11 10 8 11 8 10 10 15 12 34 27 28 16 35 47 52
16 7 8 8 6 9 11 9 10 4 11 5 2 3 3 9 4 11 8 8 6 8 4 5 16 3 3 2 9 10 8 6 10 9 24 25 14 13 20 26 9 16 25 44 64
15 12 13 12 8 5 6 8 14 14 9 6 5 10 11 7 4 10 3 5 5 6 6 6 11 9 8 6 2 6 3 11 9 23 10 10 15 18 34 11 9 26 39 46 61
15 13 19 17 11 5 7 10 6 10 10 2 7 5 4 9 8 9 4 7 4 7 5 5 13 7 10 9 12 9 6 5 5 9 11 12 24 21 19 17 14 25 32 48 57
9 9 10 14 17 8 7 14 11 15 14 12 12 5 7 3 5 5 9 10 9 7 4 7 8 12 8 5 6 8 6 3 5 5 8 18 19 12 22 10 20 27 33 46 56
13 6 9 21 6 4 6 11 9 12 12 7 11 11 14 9 5 6 12 13 16 18 10 12 7 9 18 20 15 12 8 7 5 8 8 17 35 11 37 24 33 46 67 68 69
11 10 13 27 6 5 4 5 6 7 10 8 11 11 10 14 2 12 9 12 25 15 10 7 5 10 19 12 10 3 8 1 6 7 27 14 26 6 23 48 69 71 78 71 60
15 2 10 20 7 11 10 8 6 16 7 10 7 10 8 10 13 7 8 9 19 27 19 11 10 16 16 19 4 29 27 26 13 14 26 39 66 68 57 45 57 53 63 71 80
27 15 13 8 14 15 15 12 8 11 13 18 5 12 14 9 9 13 11 9 16 23 16 12 11 13 33 42 39 48 53 39 34 44 25 66 38 57 56 50 60 71 63 66 74
23 16 16 7 9 20 15 15 20 8 19 11 11 16 13 13 18 16 12 9 10 4 10 3 10 6 32 31 33 46 48 41 42 43 39 54 64 54 81 72 58 59 50 50 60
61 33 15 17 15 9 10 15 24 27 28 16 33 12 17 36 47 44 37 32 24 10 7 4 3 7 12 19 25 17 19 12 9 13 13 17 36 37 35 36 46 50 54 49 50
Wind_Direction_850mb
70 67 62 57 48 46 42 33 29 24 21 25 24 21 13 28 43 31 33 6 353 349 342 338 311 294 257 245 215 193 197 217 216 214 255 267 342 306 288 200 163 171 197 215 185
67 61 56 49 43 36 37 32 28 23 17 26 19 8 9 17 58 38 25 13 2 356 351 355 353 342 332 297 247 205 196 222 210 220 257 273 260 287 310 288 171 176 191 194 179
59 57 54 46 38 32 40 33 32 30 41 50 40 39 8 343 67 14 16 10 4 358 357 345 334 353 348 321 300 292 251 222 238 246 253 270 260 275 265 280 243 206 190 182 180
59 61 55 45 37 31 33 42 42 47 51 50 47 34 42 110 61 3 7 2 3 2 354 7 15 23 10 1 326 323 328 326 285 266 273 274 254 303 279 263 283 251 222 189 189
63 57 51 42 32 32 28 41 47 56 61 56 53 63 62 68 36 16 7 2 7 12 18 18 26 9 12 326 325 285 330 324 317 311 307 294 262 254 251 264 275 274 214 200 199
65 55 48 37 33 31 34 48 47 64 73 66 56 56 60 66 38 20 16 15 11 18 22 19 14 348 292 287 265 311 306 304 308 303 297 275 284 268 270 260 255 236 226 211 208
63 52 42 32 25 33 31 51 57 61 92 68 57 46 52 45 27 22 23 23 25 21 23 25 22 2 332 302 324 294 295 308 272 285 285 301 269 252 264 251 240 237 230 220 215
55 46 35 25 20 34 45 45 82 65 91 97 18 48 66 35 27 29 28 37 40 30 36 24 25 7 352 318 317 310 332 349 330 338 308 244 259 300 257 261 242 228 233 232 224
39 36 28 18 11 14 69 60 40 143 68 49 34 51 36 27 30 23 21 23 19 20 43 45 42 55 22 18 8 12 331 325 324 310 301 29 316 328 293 289 282 257 244 242 237
29 25 20 12 6 3 348 241 22 41 43 34 42 71 21 11 23 19 40 33 34 30 39 36 38 49 21 37 346 317 322 309 307 315 319 298 282 305 296 325 323 325 328 309 264
10 12 9 7 2 4 10 176 80 99 58 69 53 66 7 24 28 24 27 40 42 33 17 8 50 21 332 358 296 283 298 295 308 312 321 295 276 272 283 297 302 301 297 293 277
349 356 359 359 8 10 21 92 85 123 81 53 34 27 17 9 356 18 21 38 35 41 11 20 46 349 341 12 352 324 303 309 304 329 325 308 287 269 269 261 270 280 284 277 272
321 334 345 351 3 10 32 65 90 89 76 27 13 357 10 349 10 8 10 6 35 17 31 99 276 348 16 347 351 327 296 329 317 321 303 354 296 304 255 236 252 259 269 276 275
302 310 334 349 7 16 29 34 67 64 76 313 354 12 352 358 358 6 7 16 23 18 3 256 305 351 334 324 11 321 337 332 318 332 296 26 292 309 307 306 274 261 258 266 279
292 297 319 2 25 27 14 13 52 47 50 289 327 349 2 41 329 360 359 356 345 322 62 270 307 324 324 272 338 257 312 304 296 286 332 293 266 268 307 286 290 340 341 347 317
283 280 283 327 358 6 3 11 111 43 266 330 329 359 14 12 343 317 354 0 331 29 336 258 287 219 235 293 277 277 327 314 327 44 24 276 319 288 276 340 329 337 2 20 25
277 262 256 287 309 345 351 66 36 113 335 291 302 13 28 321 329 22 354 0 35 18 350 324 296 289 336 323 314 25 25 330 342 352 235 271 318 248 286 300 334 325 1 14 18
276 261 237 257 295 333 334 54 81 224 230 322 250 36 84 359 326 331 3 1 22 70 26 57 333 313 54 176 269 299 156 178 274 302 292 301 258 245 246 325 323 320 351 4 8
269 256 248 236 241 291 301 57 201 197 171 182 54 55 318 335 322 360 37 229 232 154 145 22 270 314 313 292 345 301 359 224 258 265 274 232 273 297 275 197 292 341 357 4 1
262 246 241 227 208 192 76 239 192 183 134 107 155 131 236 277 13 33 351 233 224 189 178 247 299 252 290 329 277 203 301 356 337 309 292 281 282 250 286 271 337 336 1 350 347
209 263 225 213 192 176 170 223 226 194 169 154 185 151 214 284 178 264 234 282 212 175 146 158 152 287 13 196 242 337 317 11 122 214 271 304 275 227 254 247 313 313 334 331 327
199 272 213 177 170 77 158 199 186 170 179 176 153 170 167 170 238 261 238 218 193 165 183 211 192 279 252 278 258 212 264 177 146 283 295 305 274 247 259 295 338 320 316 316 318
201 242 213 188 162 234 284 305 238 162 205 179 179 185 184 160 204 201 227 268 217 191 192 198 272 323 336 356 357 149 193 164 314 288 259 254 267 237 317 310 295 301 300 301 305
184 200 210 202 221 144 152 232 212 214 211 208 179 134 147 190 188 235 241 273 232 213 218 181 202 185 229 246 196 282 260 261 239 260 282 245 271 282 281 290 294 291 291 293 294
200 232 197 184 234 189 173 161 162 194 210 204 253 218 169 177 191 207 219 261 253 245 225 171 244 228 248 265 271 271 277 275 250 251 248 271 268 275 284 292 293 292 288 287 290
195 179 190 186 182 157 192 209 185 190 156 234 223 198 181 179 196 187 181 179 223 296 186 151 267 327 290 270 265 277 272 267 260 261 250 259 273 269 275 280 285 287 284 276 282
210 209 203 160 161 124 221 199 199 170 215 217 209 147 188 233 242 257 267 262 240 187 207 218 144 357 269 331 310 291 251 214 242 212 209 243 257 291 295 283 292 303 292 281 284